DL1SEW-6 Weather Reports


time (UTC)temp
F
wind
direction
speed
knots
gust
knots
rain 1hr
in
rain 24hr
in
rain mn
in
humidity
%
barometer
mb
20260507161001 57 272 0.9 3.5 0.01 0.12 0.12 66 1014.3
20260507155501 57 304 0.0 4.3 0.01 0.12 0.12 65 1014.3
20260507154002 57 273 0.9 3.5 0.00 0.11 0.11 65 1014.3
20260507152501 56 277 0.9 3.5 0.00 0.11 0.11 64 1014.3
20260507151000 57 307 0.0 3.5 0.00 0.11 0.11 63 1014.3
20260507145501 57 315 1.7 3.5 0.00 0.11 0.11 63 1014.3
20260507144001 57 261 0.0 2.6 0.00 0.11 0.11 63 1014.3
20260507142501 58 302 0.9 3.5 0.00 0.11 0.11 63 1014.3
20260507141000 58 194 0.9 4.3 0.00 0.11 0.11 64 1014.3
20260507135459 58 182 1.7 4.3 0.00 0.11 0.11 64 1014.4
20260507133959 57 184 0.0 3.5 0.00 0.11 0.11 67 1014.3
20260507132459 56 209 0.0 1.7 0.00 0.11 0.11 66 1014.3
20260507131000 56 214 0.0 3.5 0.00 0.11 0.11 67 1014.4
20260507125459 56 178 0.9 1.7 0.00 0.11 0.11 68 1014.3
20260507123959 56 165 0.9 3.5 0.00 0.11 0.11 67 1014.2
20260507122505 57 170 1.7 6.1 0.00 0.11 0.11 69 1014.2
20260507121004 56 180 0.9 3.5 0.00 0.11 0.11 71 1014.1
20260507115503 55 185 1.7 7.0 0.00 0.11 0.11 73 1014.0
20260507114003 54 161 2.6 7.0 0.00 0.11 0.11 73 1014.0
20260507112504 55 161 0.9 3.5 0.00 0.11 0.11 73 1014.1
20260507111004 55 202 0.9 2.6 0.00 0.11 0.11 71 1014.2
20260507105503 55 213 0.9 4.3 0.00 0.11 0.11 68 1014.2
20260507104003 54 257 0.0 1.7 0.00 0.11 0.11 70 1013.9
20260507102503 53 304 0.0 2.6 0.00 0.11 0.11 75 1014.0
20260507101002 54 246 0.9 2.6 0.00 0.11 0.11 76 1014.0
20260507095503 53 286 0.0 1.7 0.00 0.11 0.11 78 1013.9
20260507094002 52 193 0.0 1.7 0.00 0.11 0.11 80 1013.6
20260507092502 52 183 0.0 1.7 0.00 0.11 0.11 82 1013.5
20260507091002 51 157 0.0 1.7 0.00 0.11 0.11 87 1013.3
20260507085501 49 170 0.0 3.5 0.00 0.11 0.11 88 1013.1
20260507084003 49 267 0.0 1.7 0.00 0.11 0.11 89 1013.1
20260507082503 49 265 0.0 1.7 0.00 0.11 0.11 88 1013.1
20260507081000 49 192 0.0 0.9 0.00 0.11 0.11 89 1013.0
20260507075500 49 192 0.0 1.7 0.00 0.11 0.11 89 1012.8
20260507074001 49 191 0.9 2.6 0.00 0.11 0.11 88 1012.7
20260507072502 49 173 0.9 4.3 0.00 0.11 0.11 89 1012.5
20260507071000 48 200 0.0 2.6 0.00 0.11 0.11 90 1012.3
20260507065500 48 182 0.9 3.5 0.01 0.11 0.11 91 1012.2
20260507064000 48 205 0.9 2.6 0.01 0.11 0.11 92 1012.0
20260507062504 47 157 0.9 2.6 0.02 0.11 0.11 91 1011.9
20260507061004 47 156 0.9 4.3 0.02 0.11 0.11 91 1011.9
20260507055505 47 156 0.9 4.3 0.01 0.10 0.10 91 1011.8
20260507054004 47 186 0.9 3.5 0.02 0.10 0.10 92 1011.7
20260507052506 47 150 0.0 2.6 0.02 0.09 0.09 92 1011.5
20260507051003 46 155 0.0 1.7 0.02 0.09 0.09 92 1011.0
20260507045503 46 155 0.0 0.0 0.03 0.09 0.09 91 1010.9
20260507044003 46 155 0.0 1.7 0.03 0.09 0.09 91 1010.7
20260507042503 46 155 0.0 1.7 0.04 0.08 0.08 91 1010.5
20260507041003 46 155 0.0 0.9 0.04 0.07 0.07 90 1010.3
20260507035504 46 155 0.0 0.9 0.04 0.06 0.06 90 1010.2
20260507034004 46 155 0.0 1.7 0.04 0.06 0.06 90 1010.1
20260507032502 46 155 0.0 0.9 0.03 0.04 0.04 89 1009.9
20260507031003 46 155 0.9 2.6 0.03 0.03 0.03 89 1009.9
20260507025502 47 155 0.0 1.7 0.02 0.02 0.02 88 1010.0
20260507024002 47 155 0.9 3.5 0.02 0.02 0.02 88 1009.9
20260507022503 47 155 0.9 3.5 0.01 0.01 0.01 87 1009.8
20260507021002 47 155 0.9 3.5 0.00 0.00 0.00 86 1009.7
20260507015501 47 159 1.7 4.3 0.00 0.00 0.00 87 1009.6
20260507014001 46 163 0.9 5.2 0.00 0.00 0.00 87 1009.3
20260507012501 46 161 0.9 4.3 0.00 0.00 0.00 87 1009.3
20260507011001 46 150 1.7 5.2 0.00 0.00 0.00 88 1009.1
20260507005500 46 165 0.9 4.3 0.00 0.00 0.00 88 1009.1
20260507004001 46 150 0.0 2.6 0.00 0.00 0.00 88 1009.0
20260507002502 46 150 0.0 2.6 0.00 0.00 0.00 88 1009.1
20260507001005 46 163 1.7 3.5 0.00 0.00 0.00 88 1009.0
20260506235506 46 165 0.9 3.5 0.00 0.00 0.00 88 1008.9
20260506234005 46 150 0.0 3.5 0.00 0.00 0.00 89 1008.9
20260506232506 47 160 0.9 3.5 0.00 0.00 0.00 89 1009.1
20260506231004 47 161 0.9 3.5 0.00 0.00 0.00 89 1009.0
20260506225504 47 160 0.0 1.7 0.00 0.00 0.00 89 1009.0
20260506224005 47 160 0.9 1.7 0.00 0.00 0.00 89 1008.8
20260506222505 47 171 0.9 4.3 0.00 0.00 0.00 89 1009.0
20260506221007 47 169 1.7 5.2 0.00 0.00 0.00 89 1009.1
20260506215503 47 177 0.9 6.1 0.01 0.24 0.24 89 1010.0
20260506214003 47 164 0.9 6.1 0.01 0.24 0.24 89 1009.9
20260506212503 47 150 1.7 4.3 0.01 0.24 0.24 89 1009.8
20260506211003 47 159 0.9 4.3 0.02 0.24 0.24 89 1009.7
20260506205503 47 175 1.7 6.1 0.02 0.24 0.24 89 1009.6
20260506204003 47 161 1.7 7.0 0.02 0.24 0.24 88 1009.5
20260506202502 48 167 2.6 7.8 0.02 0.23 0.23 88 1009.5
20260506201002 48 157 1.7 5.2 0.02 0.22 0.22 88 1009.3
20260506195502 48 173 0.9 4.3 0.01 0.21 0.21 88 1009.1
20260506194003 48 163 0.9 4.3 0.01 0.21 0.21 88 1008.7
20260506192504 49 150 1.7 7.8 0.00 0.20 0.20 88 1008.7
20260506191002 49 161 0.9 4.3 0.00 0.20 0.20 89 1008.4
20260506185502 49 161 0.9 3.5 0.00 0.20 0.20 89 1008.2
20260506184002 49 178 0.9 1.7 0.01 0.20 0.20 89 1007.9
20260506182501 49 153 0.0 4.3 0.02 0.20 0.20 89 1007.6
20260506181007 50 165 0.0 1.7 0.02 0.20 0.20 90 1007.5
20260506175506 50 165 0.0 1.7 0.02 0.20 0.20 90 1007.2
20260506174006 50 165 0.9 1.7 0.02 0.20 0.20 89 1007.1
20260506172507 50 165 0.0 1.7 0.03 0.19 0.19 89 1006.7
20260506171005 50 177 0.9 2.6 0.05 0.19 0.19 89 1006.7
20260506165506 51 185 1.7 5.2 0.05 0.18 0.18 88 1006.7
20260506164006 51 159 0.9 3.5 0.05 0.17 0.17 88 1006.8
20260506162506 51 208 0.9 2.6 0.04 0.16 0.16 86 1006.8